Regional Weather Roundup
Issued by NWS Kansas City/Pleasant Hill, MO

Home | Current Version | Previous Version | Graphics & Text | Print | Product List | Glossary Off
Versions: 1 2 3 4 5 6 7 8 9 10 11 12 13 14 15 16 17 18 19 20 21 22 23 24 25 26 27 28 29 30 31 32 33 34 35 36 37 38 39 40 41 42 43 44 45 46 47 48 49 50

000
ASUS43 KEAX 032304
RWREAX

WEATHER ROUNDUP FOR EASTERN KANSAS AND NORTHWEST MISSOURI
NATIONAL WEATHER SERVICE KANSAS CITY/PLEASANT HILL MO
600 PM CDT SUN MAY 03 2015

KSZ040-057-103>105-MOZ028-029-037-043-040000-
...KANSAS CITY METROPOLITAN AREA...

CITY           SKY/WX    TMP DP  RH WIND       PRES   REMARKS
K.C. INTL      PTSUNNY   81  59  47 S22       29.82R
K.C. DOWNTOWN  PTSUNNY   81  57  43 S18G31    29.82R
LEES SUMMIT    PTSUNNY   78  57  48 S16G26    29.85S
OLATHE - IXD   PTSUNNY   80  59  48 S20G26    29.85R
OLATHE - OJC   PTSUNNY   78  59  51 S14G28    29.84S
LAWRENCE       PTSUNNY   83  57  41 S20G30    29.81R

$$

MOZ001>008-011>017-020>025-030>033-038>040-044>046-053-054-040000-
...NORTHERN AND CENTRAL MISSOURI...

CITY           SKY/WX    TMP DP  RH WIND       PRES   REMARKS
ST. JOSEPH     MOSUNNY   83  58  42 S15G23    29.79S
MOSBY          MOCLDY    79  55  44 S10       29.83R
WARRENSBURG    PTSUNNY   77  55  47 S12G17    29.87R
WHITEMAN AFB   PTSUNNY   78  59  53 SW20      29.86S
CLINTON        CLOUDY    75  61  60 S12       29.90S
SEDALIA        PTSUNNY   80  55  42 SW18      29.90R
WARSAW         NOT AVBL
MARSHALL       MOSUNNY   84  59  42 S16G28    29.87S
CHILLICOTHE      N/A     82  57  42 S17G26    29.82S
MOBERLY        MOSUNNY   82  50  32 S18G24    29.88S
KIRKSVILLE     SUNNY     81  58  45 S16G23    29.85F

$$

MOZ041-047>049-056>058-063>065-088>090-097-040000-
...EASTERN AND SOUTHERN MISSOURI...

CITY           SKY/WX    TMP DP  RH WIND       PRES   REMARKS
ST. LOUIS INTL CLOUDY    83  46  27 S13G22    29.94S
SPIRIT OF STL  PTSUNNY   79  51  37 S3        29.92S
COLUMBIA       PTSUNNY   80  53  39 SW15      29.91R
JEFFERSON CITY PTSUNNY   83  51  33 S14G21    29.89R
MEXICO         PTSUNNY   82  59  44 S15       29.89F
HANNIBAL       PTSUNNY   79  52  38 S10       29.90R
ROLLA          MOSUNNY   79  54  41 S13       29.93S
LEBANON        MOSUNNY   81  50  34 SW12G17   29.96R
OSAGE BEACH    MOSUNNY   82  52  34 S13G23    29.92R
SPRINGFIELD    PTSUNNY   77  55  46 S14       29.94S
BRANSON        PTSUNNY   77  54  44 S7        29.99R
NEVADA         PTSUNNY   77  59  53 SW16G22   29.92R
JOPLIN         PTSUNNY   78  57  48 S15       29.92S
WEST PLAINS    MOSUNNY   78  51  38 SW14      30.00S

$$

IAZ060-094-KSZ022-034>040-054-083-096-NEZ052-066-093-040000-
...KANSAS...SOUTHEAST NEBRASKA AND IOWA...

CITY           SKY/WX    TMP DP  RH WIND       PRES   REMARKS
TOPEKA         MOSUNNY   85  57  38 S15G22    29.79R
MANHATTAN      MOSUNNY   83  56  39 SW22G29   29.77R
EMPORIA        PTSUNNY   81  54  39 S22G37    29.82R
CHANUTE        PTSUNNY   79  60  52 S23G29    29.88R
WICHITA        PTSUNNY   80  58  46 S24G31    29.83R
OMAHA          PTSUNNY   79  60  52 SE12      29.72S
LINCOLN        PTSUNNY   74  59  59 SE14G29   29.74R THUNDER
FALLS CITY     MOSUNNY   84  58  40 S10       29.76F
LAMONI         MOSUNNY   80  59  48 S16       29.81R
DES MOINES     CLOUDY    82  56  40 SW15G23   29.79R

$$



USA.gov is the U.S. government's official web portal to all federal, state and local government web resources and services.